| time (UTC) | temp F | wind direction | speed MPH | gust MPH | rain 1hr in | rain 24hr in | rain mn in | humidity % | barometer mb |
| 20260503173526 | 61 | 138 | 3.0 | 11.0 | 0.00 | 0.00 | 0.00 | 44 | 1018.5 |
| 20260503173037 | 60 | 180 | 4.0 | 11.0 | 0.00 | 0.00 | 0.00 | 46 | 1018.5 |
| 20260503172522 | 59 | 280 | 3.0 | 11.0 | 0.00 | 0.00 | 0.00 | 44 | 1018.6 |
| 20260503172023 | 59 | 153 | 3.0 | 10.0 | 0.00 | 0.00 | 0.00 | 45 | 1018.7 |
| 20260503171536 | 59 | 197 | 3.0 | 9.0 | 0.00 | 0.00 | 0.00 | 44 | 1018.8 |
| 20260503171024 | 59 | 219 | 4.0 | 11.0 | 0.00 | 0.00 | 0.00 | 42 | 1019.1 |
| 20260503170524 | 59 | 167 | 2.0 | 11.0 | 0.00 | 0.00 | 0.00 | 50 | 1019.1 |
| 20260503150523 | 53 | 154 | 3.0 | 9.0 | 0.00 | 0.00 | 0.00 | 59 | 1020.6 |
| 20260503131027 | 45 | 0 | 2.0 | 6.0 | 0.00 | 0.00 | 0.00 | 71 | 1020.6 |
| 20260503130526 | 44 | 219 | 2.0 | 6.0 | 0.00 | 0.00 | 0.00 | 71 | 1020.7 |
| 20260503110523 | 31 | 0 | 0.0 | 0.0 | 0.00 | 0.00 | 0.00 | 95 | 1020.1 |
| 20260503081554 | 32 | 0 | 0.0 | 0.0 | 0.00 | 0.00 | 0.00 | 93 | 1019.4 |
| 20260503081023 | 32 | 0 | 0.0 | 0.0 | 0.00 | 0.00 | 0.00 | 94 | 1019.4 |
| 20260503080523 | 32 | 0 | 0.0 | 0.0 | 0.00 | 0.00 | 0.00 | 93 | 1019.4 |
| 20260503072524 | 32 | 0 | 0.0 | 0.0 | 0.00 | 0.00 | 0.00 | 93 | 1019.3 |
| 20260503072024 | 32 | 0 | 0.0 | 0.0 | 0.00 | 0.00 | 0.00 | 93 | 1019.4 |
| 20260503071537 | 33 | 0 | 0.0 | 0.0 | 0.00 | 0.00 | 0.00 | 93 | 1019.3 |
| 20260503071023 | 33 | 0 | 0.0 | 0.0 | 0.00 | 0.00 | 0.00 | 93 | 1019.3 |
| 20260503070523 | 33 | 0 | 0.0 | 0.0 | 0.00 | 0.00 | 0.00 | 93 | 1019.3 |
| 20260503055023 | 33 | 0 | 0.0 | 0.0 | 0.00 | 0.00 | 0.00 | 91 | 1019.7 |
| 20260503054544 | 33 | 0 | 0.0 | 0.0 | 0.00 | 0.00 | 0.00 | 91 | 1019.7 |
| 20260503054026 | 34 | 0 | 0.0 | 0.0 | 0.00 | 0.00 | 0.00 | 91 | 1019.7 |
| 20260503053523 | 34 | 0 | 0.0 | 0.0 | 0.00 | 0.00 | 0.00 | 91 | 1019.8 |
| 20260503053038 | 34 | 0 | 0.0 | 0.0 | 0.00 | 0.00 | 0.00 | 91 | 1019.7 |
| 20260503052524 | 34 | 0 | 0.0 | 0.0 | 0.00 | 0.00 | 0.00 | 91 | 1019.7 |
| 20260503052023 | 34 | 0 | 0.0 | 0.0 | 0.00 | 0.00 | 0.00 | 91 | 1019.8 |
| 20260503051550 | 34 | 0 | 0.0 | 0.0 | 0.00 | 0.00 | 0.00 | 91 | 1019.6 |
| 20260503051023 | 34 | 0 | 0.0 | 0.0 | 0.00 | 0.00 | 0.00 | 91 | 1019.7 |
| 20260503050527 | 34 | 0 | 0.0 | 0.0 | 0.00 | 0.00 | 0.00 | 91 | 1019.6 |
| 20260503050041 | 34 | 0 | 0.0 | 0.0 | 0.00 | 0.00 | 0.00 | 90 | 1019.6 |
| 20260503045523 | 34 | 0 | 0.0 | 0.0 | 0.00 | 0.00 | 0.00 | 90 | 1019.7 |
| 20260503045024 | 34 | 0 | 0.0 | 0.0 | 0.00 | 0.00 | 0.00 | 89 | 1019.7 |
| 20260503044537 | 35 | 0 | 0.0 | 0.0 | 0.00 | 0.00 | 0.00 | 89 | 1019.7 |
| 20260503044022 | 35 | 0 | 0.0 | 0.0 | 0.00 | 0.00 | 0.00 | 89 | 1019.7 |
| 20260503043523 | 35 | 0 | 0.0 | 0.0 | 0.00 | 0.00 | 0.00 | 88 | 1019.7 |
| 20260503043037 | 35 | 0 | 0.0 | 0.0 | 0.00 | 0.00 | 0.00 | 88 | 1019.5 |
| 20260503042525 | 35 | 0 | 0.0 | 0.0 | 0.00 | 0.00 | 0.00 | 88 | 1019.7 |
| 20260503042024 | 35 | 0 | 0.0 | 0.0 | 0.00 | 0.00 | 0.00 | 88 | 1019.7 |
| 20260503041542 | 35 | 0 | 0.0 | 0.0 | 0.00 | 0.00 | 0.00 | 88 | 1019.7 |
| 20260503041024 | 36 | 0 | 0.0 | 0.0 | 0.00 | 0.00 | 0.00 | 87 | 1019.7 |
| 20260503040523 | 36 | 0 | 0.0 | 0.0 | 0.00 | 0.00 | 0.00 | 87 | 1019.7 |
| 20260503040044 | 36 | 0 | 0.0 | 0.0 | 0.00 | 0.00 | 0.00 | 88 | 1019.7 |
| 20260503035523 | 36 | 0 | 0.0 | 0.0 | 0.00 | 0.00 | 0.00 | 87 | 1019.7 |
| 20260503035023 | 36 | 0 | 0.0 | 0.0 | 0.00 | 0.00 | 0.00 | 86 | 1019.7 |
| 20260503034541 | 36 | 0 | 0.0 | 0.0 | 0.00 | 0.00 | 0.00 | 86 | 1019.7 |
| 20260503034023 | 36 | 0 | 0.0 | 0.0 | 0.00 | 0.00 | 0.00 | 85 | 1019.7 |
| 20260503033525 | 37 | 0 | 0.0 | 0.0 | 0.00 | 0.00 | 0.00 | 85 | 1019.7 |
| 20260503033053 | 37 | 0 | 0.0 | 0.0 | 0.00 | 0.00 | 0.00 | 85 | 1019.8 |
| 20260503032523 | 37 | 0 | 0.0 | 0.0 | 0.00 | 0.00 | 0.00 | 84 | 1019.9 |
| 20260503032027 | 37 | 0 | 0.0 | 0.0 | 0.00 | 0.00 | 0.00 | 84 | 1019.7 |
| 20260503031550 | 37 | 0 | 0.0 | 0.0 | 0.00 | 0.00 | 0.00 | 83 | 1019.7 |
| 20260503031027 | 38 | 0 | 0.0 | 0.0 | 0.00 | 0.00 | 0.00 | 83 | 1019.8 |
| 20260503030524 | 38 | 0 | 0.0 | 0.0 | 0.00 | 0.00 | 0.00 | 82 | 1019.7 |
| 20260503030037 | 38 | 0 | 0.0 | 0.0 | 0.00 | 0.00 | 0.00 | 82 | 1019.7 |
| 20260503025522 | 38 | 0 | 0.0 | 0.0 | 0.00 | 0.00 | 0.00 | 81 | 1019.7 |
| 20260503025023 | 39 | 0 | 0.0 | 0.0 | 0.00 | 0.00 | 0.00 | 80 | 1019.8 |
| 20260503024540 | 39 | 0 | 0.0 | 0.0 | 0.00 | 0.00 | 0.00 | 80 | 1019.8 |
| 20260503024023 | 39 | 0 | 0.0 | 0.0 | 0.00 | 0.00 | 0.00 | 79 | 1019.7 |
| 20260503023524 | 40 | 0 | 0.0 | 0.0 | 0.00 | 0.00 | 0.00 | 78 | 1019.8 |
| 20260503023036 | 40 | 0 | 0.0 | 0.0 | 0.00 | 0.00 | 0.00 | 78 | 1019.7 |
| 20260503022522 | 40 | 0 | 0.0 | 0.0 | 0.00 | 0.00 | 0.00 | 78 | 1019.7 |
| 20260503022025 | 41 | 0 | 0.0 | 0.0 | 0.00 | 0.00 | 0.00 | 76 | 1019.6 |
| 20260503021539 | 41 | 0 | 0.0 | 0.0 | 0.00 | 0.00 | 0.00 | 76 | 1019.6 |
| 20260503021025 | 41 | 0 | 0.0 | 0.0 | 0.00 | 0.00 | 0.00 | 75 | 1019.5 |
| 20260503020523 | 42 | 0 | 0.0 | 0.0 | 0.00 | 0.00 | 0.00 | 75 | 1019.4 |
| 20260503020041 | 42 | 0 | 0.0 | 0.0 | 0.00 | 0.00 | 0.00 | 72 | 1019.4 |
| 20260503015522 | 42 | 0 | 0.0 | 0.0 | 0.00 | 0.00 | 0.00 | 71 | 1019.3 |
| 20260503015022 | 42 | 0 | 0.0 | 0.0 | 0.00 | 0.00 | 0.00 | 70 | 1019.3 |
| 20260503014541 | 43 | 0 | 0.0 | 0.0 | 0.00 | 0.00 | 0.00 | 70 | 1019.3 |
| 20260503014023 | 43 | 0 | 0.0 | 0.0 | 0.00 | 0.00 | 0.00 | 69 | 1019.3 |
| 20260503013524 | 43 | 0 | 0.0 | 0.0 | 0.00 | 0.00 | 0.00 | 67 | 1019.3 |
| 20260503013038 | 44 | 0 | 0.0 | 0.0 | 0.00 | 0.00 | 0.00 | 67 | 1019.1 |
| 20260503012523 | 44 | 0 | 0.0 | 0.0 | 0.00 | 0.00 | 0.00 | 64 | 1019.1 |
| 20260503012024 | 44 | 0 | 0.0 | 0.0 | 0.00 | 0.00 | 0.00 | 63 | 1018.9 |
| 20260503011542 | 45 | 0 | 0.0 | 0.0 | 0.00 | 0.00 | 0.00 | 62 | 1019.0 |
| 20260503011024 | 45 | 0 | 0.0 | 0.0 | 0.00 | 0.00 | 0.00 | 61 | 1018.9 |
| 20260503010524 | 46 | 0 | 0.0 | 0.0 | 0.00 | 0.00 | 0.00 | 60 | 1018.8 |
| 20260503010038 | 46 | 0 | 0.0 | 0.0 | 0.00 | 0.00 | 0.00 | 60 | 1018.8 |
| 20260503005524 | 46 | 0 | 0.0 | 1.0 | 0.00 | 0.00 | 0.00 | 59 | 1018.7 |
| 20260503005024 | 47 | 0 | 0.0 | 1.0 | 0.00 | 0.00 | 0.00 | 57 | 1018.7 |
| 20260503004604 | 47 | 0 | 0.0 | 2.0 | 0.00 | 0.00 | 0.00 | 56 | 1018.7 |
| 20260503004023 | 47 | 71 | 0.0 | 2.0 | 0.00 | 0.00 | 0.00 | 55 | 1018.6 |
| 20260503003523 | 48 | 0 | 0.0 | 3.0 | 0.00 | 0.00 | 0.00 | 55 | 1018.5 |
| 20260503003038 | 48 | 0 | 0.0 | 4.0 | 0.00 | 0.00 | 0.00 | 56 | 1018.5 |
| 20260503002523 | 48 | 50 | 0.0 | 4.0 | 0.00 | 0.00 | 0.00 | 54 | 1018.5 |
| 20260503002027 | 48 | 0 | 0.0 | 4.0 | 0.00 | 0.00 | 0.00 | 53 | 1018.3 |
| 20260503001542 | 49 | 0 | 0.0 | 5.0 | 0.00 | 0.00 | 0.00 | 53 | 1018.3 |
| 20260503001024 | 49 | 0 | 0.0 | 5.0 | 0.00 | 0.00 | 0.00 | 52 | 1018.2 |
| 20260503000526 | 49 | 146 | 0.0 | 4.0 | 0.00 | 0.00 | 0.00 | 53 | 1018.1 |
| 20260503000039 | 49 | 78 | 0.0 | 6.0 | 0.00 | 0.00 | 0.00 | 51 | 1018.1 |
| 20260502235523 | 50 | 0 | 0.0 | 6.0 | 0.00 | 0.00 | 0.00 | 51 | 1018.1 |
| 20260502235026 | 50 | 200 | 0.0 | 4.0 | 0.00 | 0.00 | 0.00 | 50 | 1018.0 |
| 20260502234538 | 50 | 27 | 0.0 | 5.0 | 0.00 | 0.00 | 0.00 | 49 | 1018.1 |
| 20260502234024 | 50 | 30 | 0.0 | 6.0 | 0.00 | 0.00 | 0.00 | 48 | 1018.0 |
| 20260502233523 | 51 | 348 | 1.0 | 6.0 | 0.00 | 0.00 | 0.00 | 48 | 1018.0 |
| 20260502233051 | 51 | 0 | 0.0 | 6.0 | 0.00 | 0.00 | 0.00 | 49 | 1018.0 |
| 20260502232522 | 51 | 65 | 1.0 | 5.0 | 0.00 | 0.00 | 0.00 | 48 | 1018.0 |
| 20260502232023 | 51 | 0 | 0.0 | 5.0 | 0.00 | 0.00 | 0.00 | 50 | 1017.9 |
| 20260502231553 | 51 | 98 | 0.0 | 5.0 | 0.00 | 0.00 | 0.00 | 49 | 1017.9 |
| 20260502231023 | 51 | 237 | 0.0 | 5.0 | 0.00 | 0.00 | 0.00 | 49 | 1018.0 |
| 20260502230524 | 51 | 0 | 0.0 | 5.0 | 0.00 | 0.00 | 0.00 | 48 | 1017.9 |
| 20260502230042 | 51 | 15 | 1.0 | 4.0 | 0.00 | 0.00 | 0.00 | 48 | 1017.9 |
| 20260502225523 | 52 | 0 | 0.0 | 4.0 | 0.00 | 0.00 | 0.00 | 47 | 1017.8 |
| 20260502225023 | 52 | 9 | 0.0 | 5.0 | 0.00 | 0.00 | 0.00 | 46 | 1017.8 |
| 20260502224538 | 52 | 65 | 1.0 | 5.0 | 0.00 | 0.00 | 0.00 | 46 | 1017.9 |
| 20260502224025 | 52 | 0 | 1.0 | 6.0 | 0.00 | 0.00 | 0.00 | 46 | 1017.8 |
| 20260502223524 | 52 | 215 | 1.0 | 8.0 | 0.00 | 0.00 | 0.00 | 47 | 1017.8 |
| 20260502223044 | 52 | 265 | 2.0 | 10.0 | 0.00 | 0.00 | 0.00 | 46 | 1017.8 |
| 20260502222525 | 53 | 0 | 3.0 | 10.0 | 0.00 | 0.00 | 0.00 | 47 | 1017.8 |
| 20260502222024 | 52 | 159 | 1.0 | 6.0 | 0.00 | 0.00 | 0.00 | 46 | 1017.7 |
| 20260502221536 | 52 | 0 | 0.0 | 7.0 | 0.00 | 0.00 | 0.00 | 46 | 1017.7 |
| 20260502221023 | 52 | 355 | 2.0 | 7.0 | 0.00 | 0.00 | 0.00 | 47 | 1017.7 |
| 20260502220523 | 52 | 25 | 1.0 | 4.0 | 0.00 | 0.00 | 0.00 | 48 | 1017.6 |
| 20260502220042 | 52 | 0 | 1.0 | 4.0 | 0.00 | 0.00 | 0.00 | 47 | 1017.6 |
| 20260502215521 | 52 | 119 | 0.0 | 4.0 | 0.00 | 0.00 | 0.00 | 46 | 1017.6 |
| 20260502215022 | 52 | 0 | 0.0 | 6.0 | 0.00 | 0.00 | 0.00 | 45 | 1017.6 |
| 20260502214540 | 52 | 60 | 1.0 | 6.0 | 0.00 | 0.00 | 0.00 | 45 | 1017.6 |
| 20260502214022 | 53 | 0 | 1.0 | 9.0 | 0.00 | 0.00 | 0.00 | 46 | 1017.5 |
| 20260502213524 | 53 | 0 | 1.0 | 10.0 | 0.00 | 0.00 | 0.00 | 44 | 1017.5 |
| 20260502213049 | 54 | 21 | 2.0 | 10.0 | 0.00 | 0.00 | 0.00 | 44 | 1017.4 |
| 20260502212525 | 54 | 0 | 0.0 | 7.0 | 0.00 | 0.00 | 0.00 | 46 | 1017.5 |
| 20260502212024 | 54 | 237 | 2.0 | 7.0 | 0.00 | 0.00 | 0.00 | 44 | 1017.6 |
| 20260502211544 | 54 | 237 | 1.0 | 5.0 | 0.00 | 0.00 | 0.00 | 44 | 1017.4 |
| 20260502211027 | 53 | 0 | 1.0 | 6.0 | 0.00 | 0.00 | 0.00 | 44 | 1017.4 |
| 20260502210523 | 54 | 270 | 0.0 | 6.0 | 0.00 | 0.00 | 0.00 | 43 | 1017.4 |
| 20260502210039 | 55 | 336 | 1.0 | 10.0 | 0.00 | 0.00 | 0.00 | 43 | 1017.3 |
| 20260502205526 | 55 | 219 | 3.0 | 13.0 | 0.00 | 0.00 | 0.00 | 44 | 1017.3 |
| 20260502205024 | 55 | 270 | 2.0 | 13.0 | 0.00 | 0.00 | 0.00 | 43 | 1017.3 |
| 20260502204547 | 55 | 78 | 1.0 | 7.0 | 0.00 | 0.00 | 0.00 | 42 | 1017.2 |
| 20260502204023 | 55 | 249 | 2.0 | 7.0 | 0.00 | 0.00 | 0.00 | 43 | 1017.3 |
| 20260502203523 | 55 | 0 | 3.0 | 8.0 | 0.00 | 0.00 | 0.00 | 43 | 1017.3 |
| 20260502203036 | 54 | 0 | 2.0 | 8.0 | 0.00 | 0.00 | 0.00 | 46 | 1017.5 |
| 20260502202525 | 53 | 215 | 0.0 | 7.0 | 0.00 | 0.00 | 0.00 | 45 | 1017.4 |
| 20260502202025 | 54 | 175 | 1.0 | 7.0 | 0.00 | 0.00 | 0.00 | 44 | 1017.4 |
| 20260502201536 | 54 | 58 | 3.0 | 8.0 | 0.00 | 0.00 | 0.00 | 45 | 1017.6 |
| 20260502201025 | 54 | 106 | 1.0 | 8.0 | 0.00 | 0.00 | 0.00 | 47 | 1017.6 |
| 20260502200524 | 54 | 0 | 2.0 | 8.0 | 0.00 | 0.00 | 0.00 | 43 | 1017.7 |
| 20260502200039 | 55 | 267 | 2.0 | 8.0 | 0.00 | 0.00 | 0.00 | 44 | 1017.6 |
| 20260502195524 | 54 | 347 | 0.0 | 10.0 | 0.00 | 0.00 | 0.00 | 48 | 1017.7 |
| 20260502195023 | 54 | 0 | 1.0 | 10.0 | 0.00 | 0.00 | 0.00 | 43 | 1017.7 |
| 20260502194538 | 55 | 126 | 3.0 | 8.0 | 0.00 | 0.00 | 0.00 | 42 | 1017.7 |
| 20260502194023 | 55 | 0 | 1.0 | 6.0 | 0.00 | 0.00 | 0.00 | 46 | 1017.7 |
| 20260502193524 | 54 | 0 | 2.0 | 8.0 | 0.00 | 0.00 | 0.00 | 45 | 1017.6 |
| 20260502193039 | 54 | 329 | 3.0 | 8.0 | 0.00 | 0.00 | 0.00 | 43 | 1017.6 |
| 20260502192527 | 53 | 5 | 3.0 | 8.0 | 0.00 | 0.00 | 0.00 | 46 | 1017.7 |
| 20260502192025 | 53 | 234 | 1.0 | 7.0 | 0.00 | 0.00 | 0.00 | 46 | 1017.7 |
| 20260502191538 | 53 | 280 | 2.0 | 5.0 | 0.00 | 0.00 | 0.00 | 45 | 1017.8 |
| 20260502191029 | 52 | 67 | 1.0 | 5.0 | 0.00 | 0.00 | 0.00 | 45 | 1017.8 |
| 20260502190524 | 53 | 49 | 0.0 | 7.0 | 0.00 | 0.00 | 0.00 | 46 | 1018.0 |
| 20260502190038 | 53 | 34 | 2.0 | 7.0 | 0.00 | 0.00 | 0.00 | 43 | 1018.1 |
| 20260502185524 | 54 | 0 | 1.0 | 5.0 | 0.00 | 0.00 | 0.00 | 43 | 1017.9 |
| 20260502185023 | 54 | 0 | 1.0 | 6.0 | 0.00 | 0.00 | 0.00 | 44 | 1018.0 |
| 20260502184537 | 54 | 279 | 1.0 | 11.0 | 0.00 | 0.00 | 0.00 | 46 | 1018.0 |
| 20260502184027 | 53 | 171 | 1.0 | 12.0 | 0.00 | 0.00 | 0.00 | 47 | 1018.0 |
| 20260502183523 | 54 | 20 | 3.0 | 12.0 | 0.00 | 0.00 | 0.00 | 43 | 1018.1 |
| 20260502183041 | 54 | 331 | 4.0 | 12.0 | 0.00 | 0.00 | 0.00 | 45 | 1018.1 |
| 20260502182523 | 54 | 144 | 1.0 | 10.0 | 0.00 | 0.00 | 0.00 | 45 | 1018.0 |
| 20260502182023 | 54 | 129 | 1.0 | 10.0 | 0.00 | 0.00 | 0.00 | 46 | 1018.2 |
| 20260502181539 | 55 | 100 | 2.0 | 10.0 | 0.00 | 0.00 | 0.00 | 47 | 1018.2 |
| 20260502181023 | 55 | 30 | 1.0 | 10.0 | 0.00 | 0.00 | 0.00 | 45 | 1018.1 |
| 20260502180523 | 54 | 139 | 2.0 | 9.0 | 0.00 | 0.00 | 0.00 | 48 | 1018.3 |